Lid_Strength_Index
1 1 1 1 1 1 1 1 1 1 1 1 1 1 1 1 2 1 5 2 0 -1 -0 0 1 1 1 3 3 4 11 10 9 10 8 5 6 4 3 5 4 4 3 3 1
1 1 2 2 1 2 2 2 1 2 1 2 1 1 1 1 1 3 0 -1 -1 -1 1 2 3 2 4 4 4 6 11 8 6 6 6 5 5 5 5 5 5 4 3 2 1
1 1 1 2 2 2 2 2 2 2 2 2 2 1 1 1 2 2 -2 -1 -1 -1 0 1 2 3 5 4 5 5 8 6 5 5 5 6 5 4 5 6 5 5 4 3 2
1 1 1 1 2 2 2 2 2 2 2 2 2 1 1 1 6 1 -2 -2 -1 -1 1 2 2 4 5 6 4 7 5 5 5 5 5 6 5 5 5 5 3 3 3 2 3
1 1 1 1 2 2 2 2 2 2 2 2 2 1 2 3 4 -0 -1 -1 -0 0 2 2 3 4 6 5 5 6 5 5 5 5 5 5 6 6 5 4 3 3 3 3 3
2 2 2 2 2 2 2 2 2 2 2 2 1 1 2 5 2 -1 -0 -0 0 1 2 2 3 3 4 4 5 5 5 5 5 5 5 6 6 5 5 3 3 3 3 3 2
2 2 2 2 2 2 2 3 3 2 1 1 1 1 3 4 -0 -1 -0 0 0 1 2 2 3 3 3 5 3 4 6 5 5 5 6 5 8 7 4 4 4 4 3 3 3
3 2 2 2 2 2 3 3 3 0 0 1 1 1 4 2 -1 0 -0 1 0 0 1 1 2 3 4 3 4 6 6 8 6 5 5 6 13 6 4 4 5 4 4 3 3
3 3 3 3 3 3 4 3 2 -0 1 1 1 1 5 2 3 0 -0 1 1 1 1 2 2 4 3 6 7 6 9 8 7 5 6 7 9 6 4 5 5 4 4 4 3
3 3 3 3 4 4 4 4 1 0 -0 -0 0 3 3 5 3 1 -0 1 2 4 3 4 3 5 5 6 13 9 8 7 7 6 6 7 8 6 5 5 5 4 4 4 3
3 3 4 4 4 4 3 0 2 3 2 3 3 4 3 3 2 3 1 2 2 5 5 4 6 7 6 5 6 6 7 8 6 6 7 7 7 6 5 5 5 5 4 4 3
4 4 4 4 4 5 3 2 2 2 5 2 3 3 2 2 4 3 1 4 4 5 4 5 7 5 4 5 6 6 7 7 6 6 7 7 7 6 6 6 5 5 5 4 3
3 4 4 5 5 3 2 2 0 0 4 4 3 4 3 3 4 4 3 4 5 6 5 6 5 5 5 6 6 6 7 7 7 6 6 7 11 7 6 5 5 4 4 4 4
3 4 4 5 4 1 2 1 1 1 7 5 5 3 3 3 5 3 2 4 5 6 6 5 4 5 6 6 6 8 6 6 7 7 12 6 11 8 7 7 6 5 4 4 4
4 4 4 4 2 2 2 1 1 2 12 5 4 2 3 5 4 4 2 4 6 6 6 6 6 6 6 6 5 7 5 6 6 7 7 8 9 10 6 8 7 5 5 4 3
3 4 4 2 1 0 0 1 1 7 11 7 5 5 5 5 5 4 4 3 4 5 5 6 4 5 5 5 5 5 6 6 6 7 10 9 8 8 7 6 6 5 5 4 3
5 5 5 1 2 -0 0 2 7 10 6 7 6 5 6 6 6 5 6 6 7 8 7 6 6 5 4 6 5 5 7 10 11 11 11 7 8 7 6 5 5 5 5 4 3
5 5 3 1 -0 0 1 5 9 7 7 5 6 5 7 5 6 6 6 7 5 6 7 8 9 6 5 5 7 6 7 10 13 11 10 7 9 7 5 4 4 4 4 4 3
5 -0 0 -0 -1 -0 4 8 7 7 6 6 6 7 7 6 6 6 6 6 5 5 7 8 8 5 5 5 5 7 8 6 8 8 10 8 7 6 5 5 5 4 4 4 3
2 1 1 -0 -1 1 5 8 7 6 5 5 7 7 8 7 7 6 7 5 6 5 4 6 8 6 5 5 5 6 5 8 8 12 12 10 9 9 7 6 5 5 5 4 3
1 4 1 -1 -0 3 7 6 6 4 4 6 7 7 7 7 7 7 7 5 5 5 4 5 7 7 6 7 7 7 7 7 7 8 11 11 10 5 6 5 6 5 4 4 3
2 5 0 -0 5 4 5 5 7 5 4 5 5 6 6 6 7 7 7 6 4 4 6 5 6 8 7 5 5 5 6 7 9 9 8 9 9 5 5 5 4 5 4 3 3
4 3 0 1 7 6 5 5 5 5 5 5 6 5 5 6 7 6 6 4 4 5 6 5 7 9 8 7 5 7 6 6 6 7 9 10 9 5 4 5 4 5 4 4 3
4 6 3 3 3 5 6 7 7 4 5 5 5 5 6 6 5 6 6 5 4 4 4 4 6 8 9 8 7 7 7 6 7 9 8 8 8 6 6 5 5 4 4 4 3
2 5 5 6 5 5 5 6 7 7 5 5 6 6 6 7 7 7 5 5 4 6 5 5 7 7 7 6 7 7 7 7 7 7 8 7 7 7 5 5 5 4 4 4 4
5 5 3 5 5 6 7 7 7 6 6 7 7 6 6 7 6 8 7 6 6 5 5 5 7 7 9 6 7 7 7 7 7 7 7 7 7 4 4 4 5 4 4 5 4
1 1 4 7 6 6 6 7 7 6 5 5 6 6 6 6 5 5 4 4 5 6 6 6 7 8 11 8 7 9 7 7 6 6 6 7 6 4 5 5 5 5 4 4 4